Weather History for Graham, TX

Change the Weather History Date:

Friday, May 3, 2013

  Actual Average (KMWL) Record (KMWL)
Temperature  
Mean Temperature 52 °F -  
Max Temperature 68 °F 80 °F 93 °F (2012)
Min Temperature 37 °F 58 °F 33 °F (2013)
Degree Days  
Heating Degree Days 12    
Growing Degree Days 2 (Base 50)    
Moisture  
Dew Point 25 °F    
Average Humidity 42    
Maximum Humidity 77    
Minimum Humidity 15    
Precipitation  
Precipitation 0.00 in - - ()
Sea Level Pressure  
Sea Level Pressure 30.22 in    
Wind  
Wind Speed 7 mph (NW)    
Max Wind Speed 18 mph    
Max Gust Speed 37 mph    
Visibility 10 miles    
Events      
Averages and records for this station are not official NWS values.
T = Trace of Precipitation, MM = Missing Value Source: NWS Daily Summary

Daily Weather History Graph

Daily Weather History Graph

Search for Another Location

Airport:

Trip Planner

Search our weather history database for the weather conditions in past years. The results will help you decide how hot, cold, wet, or windy it might be!

Date:

Astronomy

May. 03, 2013 Rise Set
Actual Time 6:44 AM CDT 8:18 PM CDT
Civil Twilight 6:17 AM CDT 8:44 PM CDT
Nautical Twilight 5:46 AM CDT 9:16 PM CDT
Astronomical Twilight 5:12 AM CDT 9:50 PM CDT
Moon 2:50 AM CDT (5/3) 2:32 PM CDT (5/3)
Length of Visible Light 14h 26m
Length of Day
13h 33m
Last Quarter, 37% of the Moon is Illuminated
May 3
Last Quarter
May 9
New
May 17
First Quarter
May 24
Full
May 31
Last Quarter

Hourly Weather History & Observations

Time (CDT) Temp. Windchill Dew Point Humidity Pressure Visibility Wind Dir Wind Speed Gust Speed Precip Events Conditions
12:15 AM 40.1 °F - 30.4 °F 68% 30.39 in 10.0 mi Calm Calm - N/A   Clear
12:35 AM 39.9 °F 35.1 °F 30.6 °F 69% 30.39 in 10.0 mi NW 6.9 mph - N/A   Clear
12:55 AM 40.6 °F 35.4 °F 29.8 °F 65% 30.38 in 10.0 mi NW 8.1 mph - N/A   Clear
1:15 AM 40.1 °F 34.7 °F 29.3 °F 65% 30.38 in 10.0 mi WNW 8.1 mph - N/A   Clear
1:35 AM 39.6 °F 34.0 °F 29.1 °F 66% 30.38 in 10.0 mi NW 8.1 mph - N/A   Clear
1:55 AM 39.2 °F 34.2 °F 28.6 °F 66% 30.37 in 10.0 mi NW 6.9 mph - N/A   Clear
2:15 AM 38.8 °F 33.2 °F 29.3 °F 69% 30.37 in 10.0 mi NW 8.1 mph - N/A   Clear
2:35 AM 38.7 °F 32.9 °F 29.7 °F 70% 30.36 in 10.0 mi NW 8.1 mph - N/A   Clear
2:55 AM 38.3 °F 31.4 °F 30.0 °F 72% 30.36 in 10.0 mi WNW 10.4 mph - N/A   Clear
3:15 AM 38.5 °F 31.6 °F 30.2 °F 72% 30.35 in 10.0 mi WNW 10.4 mph - N/A   Clear
3:35 AM 38.7 °F 32.9 °F 30.4 °F 72% 30.35 in 10.0 mi NW 8.1 mph - N/A   Clear
3:55 AM 38.1 °F 32.9 °F 30.2 °F 73% 30.35 in 10.0 mi WNW 6.9 mph - N/A   Clear
4:15 AM 37.6 °F 31.6 °F 30.6 °F 76% 30.35 in 10.0 mi WNW 8.1 mph - N/A   Clear
4:35 AM 37.8 °F 32.5 °F 30.6 °F 75% 30.35 in 10.0 mi WNW 6.9 mph - N/A   Clear
4:55 AM 37.4 °F 31.4 °F 30.7 °F 77% 30.35 in 10.0 mi WNW 8.1 mph - N/A   Clear
5:15 AM 38.3 °F 31.9 °F 30.2 °F 73% 30.34 in 10.0 mi NW 9.2 mph - N/A   Clear
5:35 AM 37.8 °F 30.7 °F 30.2 °F 74% 30.34 in 10.0 mi NW 10.4 mph - N/A   Clear
5:55 AM 37.6 °F 31.0 °F 30.0 °F 74% 30.34 in 10.0 mi NW 9.2 mph - N/A   Clear
6:15 AM 37.0 °F 31.6 °F 30.0 °F 76% 30.34 in 10.0 mi WNW 6.9 mph - N/A   Clear
6:35 AM 37.8 °F 31.8 °F 30.0 °F 74% 30.34 in 10.0 mi NW 8.1 mph - N/A   Clear
6:55 AM 37.4 °F 32.1 °F 30.4 °F 76% 30.34 in 10.0 mi WNW 6.9 mph - N/A   Clear
7:15 AM 38.3 °F 32.5 °F 31.1 °F 75% 30.34 in 10.0 mi WNW 8.1 mph - N/A   Clear
7:35 AM 39.9 °F 33.9 °F 30.9 °F 70% 30.35 in 10.0 mi WNW 9.2 mph - N/A   Clear
7:55 AM 41.4 °F 35.2 °F 30.6 °F 65% 30.35 in 10.0 mi WNW 10.4 mph - N/A   Clear
8:35 AM 44.8 °F 39.9 °F 30.4 °F 57% 30.35 in 10.0 mi NW 9.2 mph - N/A   Clear
8:55 AM 46.8 °F - 30.2 °F 53% 30.35 in 10.0 mi WNW 9.2 mph - N/A   Clear
9:15 AM 49.1 °F - 30.0 °F 48% 30.34 in 10.0 mi NW 11.5 mph 17.3 mph N/A   Clear
9:35 AM 51.3 °F - 29.1 °F 43% 30.34 in 10.0 mi NW 15.0 mph 18.4 mph N/A   Clear
9:55 AM 53.4 °F - 28.2 °F 38% 30.33 in 10.0 mi NW 10.4 mph 20.7 mph N/A   Clear
10:15 AM 54.5 °F - 26.6 °F 34% 30.33 in 10.0 mi NW 16.1 mph 21.9 mph N/A   Clear
10:35 AM 56.1 °F - 26.4 °F 32% 30.32 in 10.0 mi NW 18.4 mph 24.2 mph N/A   Clear
10:55 AM 56.7 °F - 26.1 °F 31% 30.31 in 10.0 mi NNW 13.8 mph 20.7 mph N/A   Clear
11:15 AM 57.6 °F - 25.5 °F 29% 30.31 in 10.0 mi NW 12.7 mph 20.7 mph N/A   Clear
11:35 AM 58.6 °F - 25.7 °F 28% 30.30 in 10.0 mi WNW 15.0 mph 20.7 mph N/A   Clear
11:55 AM 59.9 °F - 24.6 °F 26% 30.29 in 10.0 mi NNW 11.5 mph 21.9 mph N/A   Clear
12:15 PM 60.1 °F - 24.8 °F 26% 30.28 in 10.0 mi NNW 10.4 mph 18.4 mph N/A   Clear
12:35 PM 61.0 °F - 23.5 °F 24% 30.28 in 10.0 mi NW 12.7 mph 24.2 mph N/A   Clear
12:55 PM 61.9 °F - 23.9 °F 23% 30.25 in 10.0 mi NNW 9.2 mph 20.7 mph N/A   Clear
1:15 PM 62.4 °F - 23.7 °F 23% 30.24 in 10.0 mi NW 17.3 mph 23.0 mph N/A   Clear
1:35 PM 63.1 °F - 23.4 °F 22% 30.23 in 10.0 mi WNW 12.7 mph 19.6 mph N/A   Scattered Clouds
1:55 PM 63.3 °F - 22.8 °F 21% 30.21 in 10.0 mi WNW 4.6 mph 17.3 mph N/A   Scattered Clouds
2:15 PM 64.4 °F - 20.5 °F 19% 30.20 in 10.0 mi NNW 10.4 mph 36.8 mph N/A   Clear
2:35 PM 64.9 °F - 18.5 °F 17% 30.18 in 10.0 mi NNW 17.3 mph 24.2 mph N/A   Clear
2:55 PM 65.8 °F - 19.9 °F 17% 30.18 in 10.0 mi West 5.8 mph 19.6 mph N/A   Clear
3:35 PM 66.4 °F - 20.7 °F 18% 30.14 in 10.0 mi WNW 13.8 mph 19.6 mph N/A   Clear
3:55 PM 66.4 °F - 20.5 °F 17% 30.13 in 10.0 mi West 15.0 mph 28.8 mph N/A   Clear
4:15 PM 67.1 °F - 20.1 °F 17% 30.11 in 10.0 mi NW 11.5 mph 20.7 mph N/A   Clear
4:35 PM 67.5 °F - 19.4 °F 16% 30.10 in 10.0 mi WNW 17.3 mph 24.2 mph N/A   Clear
4:55 PM 67.5 °F - 19.2 °F 16% 30.09 in 10.0 mi WNW 10.4 mph 24.2 mph N/A   Clear
5:15 PM 68.9 °F - 19.8 °F 15% 30.08 in 10.0 mi WNW 11.5 mph 16.1 mph N/A   Clear
5:35 PM 68.0 °F - 19.4 °F 16% 30.08 in 10.0 mi West 6.9 mph 19.6 mph N/A   Clear
5:55 PM 67.6 °F - 19.4 °F 16% 30.07 in 10.0 mi WNW 9.2 mph 17.3 mph N/A   Clear
6:15 PM 67.8 °F - 19.4 °F 16% 30.06 in 10.0 mi NNW 6.9 mph 20.7 mph N/A   Clear
6:35 PM 67.6 °F - 19.2 °F 16% 30.05 in 10.0 mi NNW 8.1 mph - N/A   Clear
6:55 PM 67.3 °F - 18.9 °F 16% 30.04 in 10.0 mi West 4.6 mph - N/A   Clear
7:15 PM 66.6 °F - 18.9 °F 16% 30.03 in 10.0 mi Calm Calm - N/A   Clear
7:35 PM 66.0 °F - 18.5 °F 16% 30.03 in 10.0 mi WNW 4.6 mph - N/A   Clear
7:55 PM 64.6 °F - 19.2 °F 18% 30.02 in 10.0 mi Calm Calm - N/A   Clear
8:15 PM 62.6 °F - 20.1 °F 20% 30.02 in 10.0 mi Calm Calm - N/A   Clear
8:35 PM 59.0 °F - 21.4 °F 23% 30.01 in 10.0 mi Calm Calm - N/A   Clear
8:55 PM 57.0 °F - 21.2 °F 25% 30.01 in 10.0 mi Calm Calm - N/A   Clear
9:15 PM 55.2 °F - 21.7 °F 27% 30.01 in 10.0 mi Calm Calm - N/A   Clear
9:35 PM 54.7 °F - 21.2 °F 27% 30.01 in 10.0 mi Calm Calm - N/A   Clear
9:55 PM 53.4 °F - 21.2 °F 28% 30.02 in 10.0 mi Calm Calm - N/A   Clear
10:15 PM 52.2 °F - 21.7 °F 30% 30.02 in 10.0 mi Calm Calm - N/A   Clear
10:35 PM 48.6 °F - 24.6 °F 39% 30.02 in 10.0 mi Calm Calm - N/A   Clear
10:55 PM 46.8 °F - 25.9 °F 44% 30.02 in 10.0 mi Calm Calm - N/A   Clear
11:15 PM 45.5 °F - 25.0 °F 45% 30.01 in 10.0 mi Calm Calm - N/A   Clear
11:35 PM 45.7 °F - 24.8 °F 44% 30.01 in 10.0 mi Calm Calm - N/A   Clear
11:55 PM 45.5 °F - 24.6 °F 44% 30.01 in 10.0 mi Calm Calm - N/A   Clear